TimeCDT,TemperatureF,Dew PointF,Humidity,Sea Level PressureIn,VisibilityMPH,Wind Direction,Wind SpeedMPH,Gust SpeedMPH,PrecipitationIn,Events,Conditions,WindDirDegrees,DateUTC
12:52 AM,68.0,54.0,61,29.69,10.0,West,13.8,-,N/A,,Clear,270,2013-05-21 05:52:00
1:52 AM,66.0,48.9,54,29.69,10.0,West,13.8,-,N/A,,Clear,280,2013-05-21 06:52:00
2:52 AM,63.0,48.9,60,29.70,10.0,West,9.2,-,N/A,,Clear,260,2013-05-21 07:52:00
3:52 AM,61.0,48.9,64,29.71,10.0,WSW,9.2,-,N/A,,Clear,250,2013-05-21 08:52:00
4:52 AM,59.0,50.0,72,29.72,10.0,West,9.2,-,N/A,,Clear,260,2013-05-21 09:52:00
5:52 AM,57.9,51.1,78,29.73,10.0,WNW,6.9,-,N/A,,Clear,290,2013-05-21 10:52:00
6:52 AM,59.0,51.1,75,29.75,10.0,West,6.9,-,N/A,,Clear,270,2013-05-21 11:52:00
7:52 AM,63.0,52.0,67,29.77,10.0,WNW,9.2,-,N/A,,Clear,290,2013-05-21 12:52:00
8:52 AM,64.0,51.1,63,29.78,10.0,WNW,12.7,-,N/A,,Clear,290,2013-05-21 13:52:00
9:52 AM,68.0,52.0,56,29.76,10.0,WNW,11.5,-,N/A,,Clear,290,2013-05-21 14:52:00
10:52 AM,70.0,53.1,55,29.76,10.0,Variable,6.9,-,N/A,,Clear,0,2013-05-21 15:52:00
11:52 AM,72.0,51.1,48,29.76,10.0,WSW,10.4,-,N/A,,Clear,240,2013-05-21 16:52:00
12:52 PM,73.0,51.1,46,29.75,10.0,WSW,10.4,18.4,N/A,,Partly Cloudy,240,2013-05-21 17:52:00
1:52 PM,75.0,51.1,43,29.73,10.0,WSW,13.8,18.4,N/A,,Clear,240,2013-05-21 18:52:00
2:52 PM,75.0,51.1,43,29.74,10.0,WSW,11.5,24.2,N/A,,Partly Cloudy,250,2013-05-21 19:52:00
3:52 PM,75.0,52.0,44,29.73,10.0,West,17.3,25.3,N/A,,Mostly Cloudy,260,2013-05-21 20:52:00
4:52 PM,73.0,51.1,46,29.72,10.0,West,13.8,21.9,N/A,,Scattered Clouds,260,2013-05-21 21:52:00
5:52 PM,72.0,48.9,44,29.69,10.0,West,12.7,-,N/A,,Clear,280,2013-05-21 22:52:00
6:52 PM,70.0,48.0,46,29.70,10.0,West,9.2,-,N/A,,Clear,280,2013-05-21 23:52:00
7:52 PM,66.0,50.0,56,29.68,10.0,NW,6.9,-,N/A,,Clear,310,2013-05-22 00:52:00
8:52 PM,62.1,52.0,70,29.70,10.0,Calm,Calm,-,N/A,,Clear,0,2013-05-22 01:52:00
9:52 PM,60.1,53.1,78,29.72,10.0,Calm,Calm,-,N/A,,Clear,0,2013-05-22 02:52:00
10:52 PM,60.1,54.0,80,29.74,10.0,Calm,Calm,-,N/A,,Mostly Cloudy,0,2013-05-22 03:52:00
11:52 PM,59.0,52.0,78,29.75,10.0,NW,3.5,-,N/A,,Clear,320,2013-05-22 04:52:00